Location: Newark
(35.6799°N, 139.7636°E)
Time: 10:54:32
(UTC+00:00)

Courier 1B - All Passes

Search period start: 11 December 2019 00:00
Search period end: 21 December 2019 00:00
Orbit: 963 x 1209 km, 28.3° (Epoch: 10 December)

Date Brightness Start Highest point End Pass type
(mag) Time Alt. Az. Time Alt. Az. Time Alt. Az.
11 Dec - 10:10:12 10° SSW 10:15:37 23° SSE 10:21:16 10° ESE visible
11 Dec - 12:02:15 10° WSW 12:09:08 43° S 12:16:22 10° E visible
11 Dec - 13:55:46 10° WSW 14:03:03 49° S 14:10:33 10° ESE night (unlit)
11 Dec - 15:50:02 10° W 15:56:54 34° SSW 16:03:48 10° SE night (unlit)
11 Dec - 17:46:16 10° WSW 17:50:23 15° SSW 17:54:29 10° S visible
12 Dec - 09:17:34 10° SSW 09:22:01 18° SSE 09:26:36 10° ESE visible
12 Dec - 11:08:49 10° SW 11:15:22 38° SSE 11:22:17 10° E visible
12 Dec - 13:02:02 10° WSW 13:09:10 50° S 13:16:38 10° ESE night (unlit)
12 Dec - 14:56:03 10° W 15:03:05 39° SSW 15:10:16 10° SE night (unlit)
12 Dec - 16:51:22 10° WSW 16:56:41 20° SSW 17:02:00 10° SSE night (unlit)
13 Dec - 08:25:38 10° S 08:28:26 13° SSE 08:31:19 10° SE visible
13 Dec - 10:15:31 10° SW 10:21:39 32° SSE 10:28:08 10° E visible
13 Dec - 12:08:22 10° WSW 12:15:20 48° S 12:22:41 10° ESE visible
13 Dec - 14:02:10 10° W 14:09:14 44° S 14:16:34 10° ESE night (unlit)
13 Dec - 15:56:54 10° WSW 16:02:57 25° SSW 16:09:02 10° SSE night (unlit)
14 Dec - 09:22:25 10° SSW 09:28:00 26° SSE 09:33:52 10° ESE visible
14 Dec - 11:14:48 10° WSW 11:21:33 45° S 11:28:41 10° ESE visible
14 Dec - 13:08:22 10° WSW 13:15:24 47° S 13:22:45 10° ESE night (unlit)
14 Dec - 15:02:44 10° WSW 15:09:11 30° SSW 15:15:47 10° SE night (unlit)
14 Dec - 17:00:10 10° SW 17:02:37 12° SSW 17:05:05 10° SSW night (unlit)
15 Dec - 08:29:34 10° SSW 08:34:24 21° SSE 08:39:27 10° ESE visible
15 Dec - 10:21:20 10° SW 10:27:48 41° SSE 10:34:38 10° E visible
15 Dec - 12:14:39 10° WSW 12:21:35 48° S 12:28:52 10° ESE visible
15 Dec - 14:08:43 10° W 14:15:24 35° SSW 14:22:17 10° SE night (unlit)
15 Dec - 16:04:34 10° WSW 16:08:56 16° SSW 16:13:20 10° S night (unlit)
16 Dec - 07:37:08 10° S 07:40:52 16° SSE 07:44:42 10° ESE daylight
16 Dec - 09:27:59 10° SW 09:34:06 35° SSE 09:40:34 10° E visible
16 Dec - 11:21:01 10° WSW 11:27:46 48° S 11:34:57 10° ESE visible
16 Dec - 13:14:51 10° W 13:21:36 39° SSW 13:28:39 10° SE night (unlit)
16 Dec - 15:09:53 10° WSW 15:15:13 21° SSW 15:20:38 10° SSE night (unlit)
17 Dec - 06:45:52 10° SSE 06:47:22 11° SSE 06:48:52 10° SE daylight
17 Dec - 08:34:47 10° SW 08:40:28 30° SSE 08:46:26 10° ESE visible
17 Dec - 10:27:27 10° WSW 10:34:01 46° S 10:40:59 10° ESE visible
17 Dec - 12:21:05 10° WSW 12:27:48 43° S 12:34:55 10° ESE visible
17 Dec - 14:15:36 10° WSW 14:21:29 25° SSW 14:27:33 10° SSE night (unlit)
18 Dec - 07:41:46 10° SSW 07:46:53 24° SSE 07:52:12 10° ESE daylight
18 Dec - 09:33:59 10° WSW 09:40:17 43° S 09:47:01 10° ESE visible
18 Dec - 11:27:24 10° WSW 11:34:02 46° S 11:41:05 10° ESE visible
18 Dec - 13:21:33 10° WSW 13:27:44 30° SSW 13:34:11 10° SE night (unlit)
18 Dec - 15:18:30 10° SW 15:21:12 12° SSW 15:23:56 10° S night (unlit)
19 Dec - 06:49:02 10° SSW 06:53:21 19° SSE 06:57:48 10° ESE daylight
19 Dec - 08:40:34 10° SW 08:46:38 38° SSE 08:53:01 10° ESE visible
19 Dec - 10:33:46 10° WSW 10:40:17 47° S 10:47:12 10° ESE visible
19 Dec - 12:27:40 10° WSW 12:34:00 35° SSW 12:40:39 10° SE visible
19 Dec - 14:23:14 10° WSW 14:27:30 16° SSW 14:31:54 10° S night (unlit)
20 Dec - 05:56:45 10° S 05:59:51 14° SSE 06:02:59 10° ESE daylight
20 Dec - 07:47:16 10° SW 07:53:01 33° SSE 07:59:00 10° ESE visible
20 Dec - 09:40:11 10° WSW 09:46:34 46° S 09:53:19 10° ESE visible
20 Dec - 11:33:54 10° WSW 11:40:16 39° SSW 11:47:00 10° SE visible
20 Dec - 13:28:43 10° WSW 13:33:49 20° SSW 13:39:06 10° SSE night (unlit)
